#timestamp,LO_Frequency,Hit,StdDev 
1505635215.3,286047001.1,N
1505635235.1,286047001.0,N
1505635236.0,286047001.0,N
1505635255.8,286047000.7,N
1505635275.7,286047002.3,N
1505635295.5,286046999.7,N
1505635315.3,286047000.0,N
1505635335.2,286047000.7,N
1505635355.0,286047001.1,N
1505635355.9,286047001.1,N
1505635375.8,286046998.5,N
1505635395.6,286046999.1,N
1505635415.4,286046998.8,N
1505635435.3,286046998.4,N
1505635455.1,286046998.1,N
1505635475.9,286047000.7,N
1505635495.7,286047001.1,N
1505635515.5,286047000.2,N
1505635535.4,286047000.2,N
1505635555.2,286047000.3,N
1505635575.0,286047000.0,N
1505635575.9,286047000.0,N
1505635595.8,286047002.4,N
1505635615.6,286047001.9,N
1505635635.5,286047001.9,N
1505635655.3,286047002.7,N
1505635675.1,286047002.8,N
1505635695.9,286047000.3,N
1505635715.7,286047000.1,N
1505635735.5,286047000.6,N
1505635755.4,286047002.3,N
1505635775.2,286047000.6,N
1505635795.1,286047000.7,N
1505635796.0,286047000.7,N
1505635815.8,286047002.1,N
1505635835.6,286046999.8,N
1505635855.5,286047000.1,N
1505635875.3,286047000.7,N
1505635895.1,286047000.9,N
1505635915.9,286046998.5,N
1505635935.7,286046998.6,N
1505635955.6,286047001.1,N
1505635975.4,286046998.6,N
1505635995.2,286047001.0,N
1505636015.1,286047000.8,N
1505636016.0,286047000.8,N
1505636035.8,286047001.0,N
1505636055.7,286047000.4,N
1505636075.5,286047000.0,N
1505636095.3,286047000.7,N
1505636115.2,286047000.2,N
1505636135.0,286046999.8,N
1505636135.9,286046999.8,N
1505636155.7,286047000.1,N
1505636175.6,286047002.7,N
1505636195.4,286047000.9,N
1505636215.3,286047000.2,N
1505636235.1,286046999.9,N
1505636236.0,286046999.9,N
1505636255.8,286047001.9,N
1505636275.7,286047002.4,N
1505636295.5,286047002.7,N
1505636315.4,286047000.1,N
1505636335.2,286047001.0,N
1505636355.0,286046999.9,N
1505636355.9,286046999.9,N
1505636375.8,286047002.7,N
1505636395.6,286047000.3,N
1505636415.4,286046999.8,N
1505636435.3,286047002.0,N
1505636455.1,286047002.8,N
1505636475.9,286046999.7,N
1505636495.7,286047002.7,N
1505636515.5,286047000.1,N
1505636535.4,286047000.4,N
1505636555.2,286047000.9,N
1505636575.0,286047000.7,N
1505636576.0,286047000.7,N
1505636595.8,286046998.9,N
1505636615.6,286046996.5,Y
1505636635.5,286046999.2,P
1505636655.3,286046998.5,N
1505636675.1,286046998.1,N
1505636695.9,286047001.0,N
1505636715.7,286047000.1,N
1505636735.6,286047002.6,N
1505636755.4,286047002.4,N
1505636775.2,286047002.8,N
1505636795.1,286047000.5,N
1505636796.0,286047000.5,N
1505636815.8,286047002.6,N
1505636835.6,286047002.7,N
1505636855.5,286047002.6,N
1505636875.3,286047000.1,N
1505636895.2,286047000.3,N
1505636915.9,286046998.9,N
1505636935.7,286047000.3,N
1505636955.6,286047002.7,N
1505636975.4,286047001.5,N
1505636995.3,286047005.4,Y
1505637015.1,286047006.2,P
1505637016.0,286047006.2,N
1505637035.8,286047008.4,P
1505637055.7,286047009.7,Y
1505637075.5,286047008.1,P
1505637095.3,286047013.6,P
1505637115.2,286047015.0,P
1505637135.0,286047018.3,Y
1505637135.9,286047018.3,P
1505637155.8,286047008.2,N
1505637175.6,286047009.5,N
1505637195.4,286047011.2,N
1505637215.3,286047012.2,Y
1505637235.1,286046999.8,P
1505637255.9,286047004.6,N
1505637275.7,286047005.1,N
1505637295.5,286047005.0,N
1505637315.4,286047005.1,N
1505637335.2,286047005.4,N
1505637355.0,286047007.6,N
1505637355.9,286047007.6,N
1505637375.8,286047008.5,N
1505637395.6,286047011.6,Y
1505637415.5,286047000.6,P
1505637435.3,286046997.0,N
1505637455.1,286046994.6,N
1505637475.9,286046989.3,N
1505637495.7,286046986.7,N
1505637515.6,286046983.5,N
1505637535.4,286046980.4,N
1505637555.2,286046976.2,N
1505637575.1,286046974.6,N
1505637576.0,286046974.6,N
1505637595.8,286046971.4,N
1505637615.6,286046970.1,N
1505637635.5,286046970.3,N
1505637655.3,286046970.7,N
1505637675.2,286046970.7,N
1505637695.9,286046968.8,N
1505637715.7,286046967.6,N
1505637735.6,286046966.5,N
1505637755.4,286046967.0,N
1505637775.2,286046965.3,N
1505637795.1,286046964.6,N
1505637796.0,286046964.6,N
1505637815.8,286046965.7,N
1505637835.7,286046965.2,N
1505637855.5,286046964.6,N
1505637875.3,286046967.6,N
1505637895.2,286046965.6,N
1505637915.0,286046964.8,N
1505637915.9,286046964.8,N
1505637935.8,286046962.9,Y
1505637955.6,286046988.7,P
1505637975.4,286046989.3,N
1505637995.3,286046989.3,N
1505638015.1,286046988.5,N
1505638035.9,286046990.3,N
1505638055.7,286046989.1,N
1505638075.5,286046990.0,N
1505638095.4,286046991.6,N
1505638115.2,286046988.7,N
1505638135.1,286046991.6,N
1505638136.0,286046991.6,N
1505638155.8,286046988.7,N
1505638175.6,286046991.6,N
1505638195.5,286046990.6,N
1505638215.3,286046991.2,N
1505638235.1,286046991.4,N
1505638255.9,286046991.6,N
1505638275.7,286046991.4,N
1505638295.6,286046988.9,Y
1505638315.4,286046999.8,P
1505638335.2,286046999.7,N
1505638355.1,286047000.7,N
1505638356.0,286047000.7,N
1505638375.8,286047001.0,N
1505638395.7,286047000.8,N
1505638415.5,286047002.7,N
1505638435.3,286047002.4,N
1505638455.2,286047001.3,N
1505638475.0,286047003.0,N
1505638475.9,286047003.0,N
1505638495.7,286047004.0,N
1505638515.6,286047002.0,N
1505638535.4,286047003.9,N
1505638555.3,286047002.1,N
1505638575.1,286046999.7,N
1505638576.0,286046999.7,N
1505638595.8,286047002.4,N
1505638615.7,286047002.0,N
1505638635.5,286047002.1,N
1505638655.4,286047002.5,N
1505638675.2,286047004.4,N
1505638695.0,286047003.9,N
1505638695.9,286047003.9,N
1505638715.8,286047000.2,N
1505638735.6,286046999.9,N
1505638755.5,286047003.9,N
1505638775.3,286046999.7,N
1505638795.1,286047002.0,N
